Date,TemperatureHighF,TemperatureAvgF,TemperatureLowF,DewpointHighF,DewpointAvgF,DewpointLowF,HumidityHigh,HumidityAvg,HumidityLow,PressureMaxIn,PressureMinIn,WindSpeedMaxMPH,WindSpeedAvgMPH,GustSpeedMaxMPH,PrecipitationSumIn
2013-1-1,51,47,43,44,38,8,96,73,20,29.71,29.53,8,2,9,0.27
2013-1-2,48,42,38,42,30,19,97,65,42,29.83,29.58,14,4,17,0.04
2013-1-3,50,38,33,31,26,16,77,64,43,29.88,29.79,8,2,10,0.00
2013-1-4,48,37,30,26,18,8,81,50,25,29.94,27.56,17,5,20,0.00
2013-1-5,60,42,33,30,18,4,64,43,16,30.02,29.84,13,4,16,0.00
2013-1-6,57,47,36,34,30,23,88,54,35,29.85,29.69,13,4,15,0.01
2013-1-7,57,42,32,32,25,12,83,54,23,30.09,29.80,13,4,17,0.00
2013-1-8,60,40,28,40,32,24,95,76,41,30.09,29.98,14,2,20,0.00
2013-1-9,66,48,33,50,42,32,99,84,56,30.06,29.96,10,2,13,0.00
2013-1-10,69,49,41,50,36,18,99,69,21,30.20,30.06,5,1,7,0.00
2013-1-11,46,43,41,43,40,34,99,90,68,30.08,29.77,9,1,11,0.02
2013-1-12,81,56,43,60,51,42,99,87,47,29.80,29.72,5,1,6,0.01
2013-1-13,75,63,52,63,57,-9,99,84,59,29.75,29.64,17,3,21,0.00
2013-1-14,66,58,48,61,56,48,99,94,82,29.90,29.66,14,2,18,0.76
2013-1-15,48,42,39,48,42,39,99,98,97,29.93,29.74,11,3,14,2.02
2013-1-16,40,39,39,40,39,38,99,99,99,29.77,29.65,8,3,11,0.27
2013-1-17,48,40,34,48,39,33,99,95,77,29.80,29.62,11,4,15,1.11
2013-1-18,53,37,30,35,23,8,98,62,23,30.14,29.79,14,3,21,0.22
2013-1-19,58,40,28,34,27,15,93,66,22,30.09,29.72,11,3,14,0.02
2013-1-20,60,46,35,33,27,11,84,54,24,29.72,29.62,21,5,30,0.00
2013-1-21,59,42,30,33,17,-6,84,45,17,29.72,29.49,22,5,31,0.00
2013-1-22,36,28,23,-2,-10,-18,25,20,16,29.90,29.62,17,6,22,0.00
2013-1-23,40,29,20,16,-1,-14,55,31,18,29.96,29.65,15,4,20,0.00
2013-1-24,35,30,24,18,3,-11,57,35,18,30.14,29.60,26,9,33,0.00
2013-1-25,28,23,20,22,10,-4,80,59,31,30.12,29.68,17,4,21,0.00
2013-1-26,51,34,24,30,22,14,95,63,28,30.04,29.67,13,3,17,0.05
2013-1-27,38,32,24,26,21,16,79,65,54,30.22,30.04,10,2,13,0.00
2013-1-28,61,44,34,45,36,25,95,77,46,30.08,29.80,18,4,24,0.15
2013-1-29,77,56,42,57,45,40,98,72,32,29.82,29.64,17,3,21,0.00
2013-1-30,70,64,53,64,59,49,98,86,67,29.65,27.24,32,7,43,0.58
2013-1-31,54,42,32,50,24,8,92,53,26,29.59,29.03,24,8,34,0.07